Aeroporto :
LOGIN :

Iscrizione | Disclaimer

   EN    FR    IT 

 










Sommario :    VFR   VFR Marginale   IFR   IFR Intensivo   IFR Molto Intensivo
Visibilità : 
Base nubi : 
>= 8 km
>= 3000ft
5 / 8 km
1000 / 3000 ft
1500m / 5 km
500 / 1000 ft
800 / 1500m
200 / 500 ft
< 800m
< 200 ft
Simboli :   Temporali  Nebbia  Neve Forte  Precipitazioni Forti  Vento > 20 kt
SIGMETs :   Varie  Temporali  Ghiacco  Turbolenza  Onda orograficha  Ceneri Vulcaniche






- Altitudine del aeroporto : 1411 ft
- Codice IATA : ZHI


LSZG - Grenchen

ULTIMO METAR :
  • 180520Z AUTO 22003KT 190V260 9999 FEW046 03/01 Q1029

METARs OBSOLETI :
  • 180450Z AUTO 30004KT 9999 FEW042 SCT048 04/01 Q1029
  • 180420Z AUTO 22003KT 170V250 9999 FEW036 BKN045 BKN050 05/01 Q1029
  • 180350Z AUTO VRB02KT 9999 BKN041 BKN046 04/01 Q1029
  • 180320Z AUTO 18004KT 9999 SCT048 05/01 Q1029
  • 180250Z AUTO 29006KT CAVOK 05/01 Q1028

TAF TAF LSZG
Valido dal 18 a 06 ore il 18 a 15 ore UTC


180525Z 1806/1815 24005KT 9999 FEW035 BKN045
ATIS : +41 32 396 96 33



MetMap, La meteo Aeronautica in un colpo d'occhio ! - Copyright ORBIFLY Dicembre 2007 - Disclaimer

ORBIFLY MET'MAP TEAM :

Programmazione e sviluppo : Alexandra Zaïnal
Concezione : Baudouin d'Aumeries
Aiuto per la programmazione : Marc-Olivier Méhu
Supporto tecnico e logistico : Manuel Goepfert
Aiuto per la traduzione : Arnaldo La Scala

Contatto : metmap@orbifly.com




FONTI E CREDITI :

   NOAA